Regional Weather Roundup
Issued by NWS San Angelo, TX

Home | Current Version | Previous Version | Text Only | Print | Product List | Glossary On
Versions: 1 2 3 4 5 6 7 8 9 10 11 12 13 14 15 16 17 18 19 20 21 22 23 24 25 26 27 28 29 30 31 32 33 34 35 36 37 38 39 40 41 42 43 44 45 46 47 48 49 50
000
ASUS44 KSJT 312010
RWRSJT
WEST CENTRAL TEXAS REGIONAL WEATHER ROUNDUP
NATIONAL WEATHER SERVICE SAN ANGELO TX
200 PM CST SAT JAN 31 2015

NOTE: "FAIR" INDICATES FEW OR NO CLOUDS BELOW 12,000 FEET WITH NO
SIGNIFICANT WEATHER AND/OR OBSTRUCTIONS TO VISIBILITY.

TXZ049-054-064>066-071>073-076>078-098-099-113-114-127-128-139-140-
154-155-168>170-312100
...LOCATIONS ACROSS WEST CENTRAL TEXAS...

CITY           SKY/WX    TMP DP  RH WIND       PRES   REMARKS
SAN ANGELO     CLOUDY    55  52  89 CALM      29.93F
ABILENE        LGT RAIN  49  46  90 SE16      29.95F
DYESS AFB      CLOUDY    48  48 100 SE13      29.93F
JUNCTION       CLOUDY    57  52  83 S13G20    29.95F
SWEETWATER     CLOUDY    49  49 100 SE14      29.94F
BROWNWOOD      LGT RAIN  48  48 100 SE12      29.99F
COLEMAN        LGT RAIN  50  50 100 S10       29.97F
SONORA         CLOUDY    57  54  88 S18       29.97F
OZONA          DRIZZLE   52  50  93 S16G23    29.95F
BRADY          LGT RAIN  50  50 100 SE13      29.96F
$$

TEXAS PANHANDLE/OKLAHOMA PANHANDLE

CITY           SKY/WX    TMP DP  RH WIND       PRES   REMARKS
AMARILLO       CLOUDY    37  36  96 S10       29.90F WCI  30
BORGER         CLOUDY    40  36  86 S12       29.90F WCI  33
CANADIAN       DRIZZLE   42  40  94 S13       29.91F WCI  35
DALHART        CLOUDY    40  36  86 SW16      29.86F WCI  31
DUMAS          CLOUDY    37  36  93 S15       29.87F WCI  28
GUYMON         NOT AVBL
HEREFORD       CLOUDY    40  39  98 S9        29.89F WCI  34
PAMPA          CLOUDY    38  37  94 S18       29.89F WCI  29
PERRYTON       CLOUDY    40  38  91 S17       29.88F WCI  31
$$

SOUTHERN PANHANDLE/SOUTH PLAINS/ROLLING PLAINS

CITY           SKY/WX    TMP DP  RH WIND       PRES   REMARKS
LUBBOCK        DRIZZLE   42  41  96 S10       29.90F FOG     WCI  36
SNYDER         HVY RAIN N/A N/A N/A S9        29.93F
CHILDRESS      LGT RAIN  42  41  96 SE7       29.96F FOG     WCI  38
SEMINOLE       FOG       44  44 100 S3        29.91F VSB 1/2
$$

PERMIAN BASIN

CITY           SKY/WX    TMP DP  RH WIND       PRES   REMARKS
MIDLAND        CLOUDY    50  48  93 S13       29.89F FOG
ODESSA         CLOUDY    49  47  93 S16       29.90F FOG
WINK           CLOUDY    51  45  79 S7        29.88F
$$

FAR WEST/SOUTHWEST MOUNTAINS/TRANS PECOS

CITY           SKY/WX    TMP DP  RH WIND       PRES   REMARKS
ALPINE         PTCLDY    61  46  57 SW20G26   29.94F
DRYDEN           N/A     51  51 100 E6        29.91F
EL PASO        PTSUNNY   55  48  77 S7        29.87F
FORT STOCKTON  CLOUDY    62  51  67 S16       29.86F
GUADALUPE PASS CLOUDY    46  46 100 SW13      29.90F FOG
MARFA          PTSUNNY   61  46  59 S16G24    29.92F
PECOS          CLOUDY    50  46  85 NW5       29.89F
$$

DALLAS/FORT WORTH METROPLEX

CITY           SKY/WX    TMP DP  RH WIND       PRES   REMARKS
DFW AIRPORT    CLOUDY    52  38  58 SE13      30.04F
FTW MEACHAM    LGT RAIN  51  42  71 SE17      30.02F
DAL-EXECUTIVE  LGT RAIN  52  42  69 SE10G21   30.04F
GRAND PRAIRIE  CLOUDY    52  43  71 SE9       30.06F
ADDISON        CLOUDY    52  36  54 E13G22    30.06
MESQUITE       DRIZZLE   52  39  62 SE9       30.07F
LANCASTER      LGT RAIN  51  41  69 SE6       30.07F
$$

NORTH CENTRAL TEXAS

CITY           SKY/WX    TMP DP  RH WIND       PRES   REMARKS
SHRMAN/DENISON CLOUDY    52  37  56 E10       30.06F
GAINESVILLE    CLOUDY    49  34  56 SE9       30.06F
BRIDGEPORT     CLOUDY    50  40  69 SE9       30.04F
DENTON         CLOUDY    51  37  58 SE13      30.04F
WAXAHACHIE     LGT RAIN  50  43  76 E8        30.05F
GRANBURY       LGT RAIN  48  44  87 E8        30.04F
$$

WESTERN NORTH TEXAS

CITY           SKY/WX    TMP DP  RH WIND       PRES   REMARKS
WICHITA FALLS  LGT RAIN  44  41  89 SE13      29.99F FOG     WCI  38
VERNON         CLOUDY    44  39  84 SE6       29.99F
BRECKENRIDGE   LGT RAIN  48  47  95 SE6       29.98F
COMANCHE       DRIZZLE   47  47 100 SE8       30.00F
$$

CENTRAL AND SOUTH CENTRAL TEXAS

CITY           SKY/WX    TMP DP  RH WIND       PRES   REMARKS
AUSTIN/BERGSTM RAIN      56  54  93 N3        30.01F FOG
WACO           CLOUDY    53  43  68 SE7       30.03F
HILLSBORO      CLOUDY    51  42  71 SE8       30.04F
TEMPLE         CLOUDY    55  43  62 SE9       30.02F
KILLEEN-GRAY   LGT RAIN  48  46  93 SE7       30.03F FOG
FORT HOOD      LGT RAIN  49  46  88 SE6       30.02F FOG
GEORGETOWN     CLOUDY    54  50  87 CALM      30.02F
LAGO VISTA     RAIN      51  49  95 CALM      30.02F VSB 3/4
SAN MARCOS     CLOUDY    55  54  94 CALM      30.01F FOG
NEW BRAUNFELS  LGT RAIN  57  55  93 N7        29.98F FOG
RANDOLPH AFB   DRIZZLE   57  57 100 N2        29.99F
SAN ANTONIO    LGT RAIN  57  56  96 E6        29.99F VSB 1/2
STINSON        LGT RAIN  60  58  92 E5        29.97F FOG
PLEASANTON     NOT AVBL
LA GRANGE      CLOUDY    65  57  77 SE8       30.00F
GIDDINGS       CLOUDY    63  54  73 SE6       30.05F
$$

EAST TEXAS

CITY           SKY/WX    TMP DP  RH WIND       PRES   REMARKS
PARIS          CLOUDY    54  32  43 SE14      30.11F
CLARKSVILLE    NOT AVBL
TYLER          CLOUDY    57  35  43 SE12      30.09F
LONGVIEW       CLOUDY    57  33  40 SE8       30.12F
PALESTINE      CLOUDY    56  42  59 E12       30.09F
NACOGDOCHES    CLOUDY    55  37  50 SE9       30.14F
$$

TEXAS HILL COUNTRY AND EDWARDS PLATEAU

CITY           SKY/WX    TMP DP  RH WIND       PRES   REMARKS
LLANO          CLOUDY    48  48 100 SE8       30.05F FOG
HORSESHOE BAY  RAIN     N/A N/A N/A CALM      30.02F
KERRVILLE      CLOUDY    55  53  95 SE8       29.98F
FREDERICKSBRG  DRIZZLE   52  51  97 SE5       29.99F
ROCKSPRINGS    NOT AVBL
HONDO          LGT RAIN  56  56 100 E7        29.99F FOG
UVALDE         DRIZZLE   56  56  98 SE8       29.97F
DEL RIO        CLOUDY    53  52  96 SE9       29.94F FOG
$$

SOUTHEAST TEXAS

CITY           SKY/WX    TMP DP  RH WIND       PRES   REMARKS
COLLEGE STN    CLOUDY    63  50  62 SE15      30.06F
CALDWELL       MOCLDY    61  52  72 SE12      30.06F
CROCKETT       CLOUDY    61  46  59 SE8       30.12F
BRENHAM        PTSUNNY   65  54  67 SE13G18   30.05F
HUNTSVILLE     PTSUNNY   61  48  62 E9        30.07F
CONROE         PTSUNNY   60  48  64 E10       30.09F
HOUSTON BUSH   CLOUDY    63  52  67 SE16G23   30.09F
HOUSTON HOBBY  PTSUNNY   62  54  74 E16       30.08F
PERLAND        CLOUDY    63  54  72 E13       30.10F
WHARTON        MOCLDY    68  60  74 SE16      30.05F
$$

THE UPPER TEXAS COAST

CITY           SKY/WX    TMP DP  RH WIND       PRES   REMARKS
ORANGE         MOCLDY    60  49  67 E10       30.16F
PORT ARTHUR    CLOUDY    60  49  66 E14       30.13F
GALVESTON      CLOUDY    62  57  83 E16G23    30.10F
ANGLETON       CLOUDY    63  57  81 E13       30.08F
BAY CITY       CLOUDY    70  62  76 SE15      30.05F
$$

TEXAS COASTAL BEND, RIO GRANDE PLAINS DEEP SOUTH TEXAS

CITY           SKY/WX    TMP DP  RH WIND       PRES   REMARKS
VICTORIA       CLOUDY    69  61  75 SE16G26   30.01F
BEEVILLE       MOCLDY    70  60  70 SE20G28   29.97F
ROCKPORT       CLOUDY    70  62  76 SE14      30.01F
PORT ARANSAS   CLOUDY    67  62  84 SE12G17   30.01F
PORT LAVACA    CLOUDY    66  61  85 SE17G23   30.03F
CORPUS CHRISTI CLOUDY    72  61  68 SE25G35   29.98F
KINGSVILLE NAS CLOUDY    73  63  70 SE23G30   29.97F
COTULLA        NOT AVBL
LAREDO         CLOUDY    71  58  63 S16       29.96F
BROWNSVILLE    CLOUDY    73  62  68 SE23G31   29.99F
PORT ISABEL    CLOUDY    73  62  68 SE21G28   29.98F
HEBBRONVILLE   CLOUDY    70  58  65 S16G24    29.96F
MCALLEN        LGT RAIN  75  61  61 SE23G31   29.96F
WESLACO        PTSUNNY   74  59  58 S22G29    29.96F
FALFURRIAS     CLOUDY    80  56  43 S17       29.96F
EDINBURG       CLOUDY    77  58  52 SE18G25   29.96F
$$


USA.gov is the U.S. government's official web portal to all federal, state and local government web resources and services.